Location: Bieg
(49.3499°N, 10.3835°E)
Time: 01:00:32
(UTC+00:00)

AQUA - Pass Details

Date: 23 May 2024
Orbit: 694 x 697 km, 98.3° (Epoch: 12 June)

Event Time Altitude Azimuth Distance (km) Brightness Sun altitude
Rises 01:57:18 0° 14° (NNE) 3,086 8.5 -11.3°
Reaches altitude 10° 01:59:34 10° 15° (NNE) 2,164 7.5 -11.1°
Maximum altitude 02:04:19 87° 100° (E) 703 3.8 -10.6°
Enters shadow 02:08:59 10° 195° (SSW) 2,130 5.8 -10.1°
